DW5856 Weather Reports


Display with metric or nautical units.
time (UTC)temp
F
wind
direction
speed
MPH
gust
MPH
rain 1hr
in
rain 24hr
in
rain mn
in
humidity
%
barometer
mb
20260903060013 68 209 2.0 4.0 0.00 0.00 0.00 53 1002.4
20260903054513 68 292 1.0 2.0 0.00 0.00 0.00 52 1002.7
20260903053017 68 292 1.0 6.0 0.00 0.00 0.00 51 1002.9
20260903051518 68 264 1.0 5.0 0.00 0.00 0.00 53 1003.2
20260903050012 68 205 2.0 9.0 0.00 0.00 0.00 54 1003.1
20260903044510 67 278 4.0 8.0 0.00 0.00 0.00 56 1002.9
20260903043019 66 257 3.0 6.0 0.00 0.00 0.00 55 1002.7
20260903041516 66 214 1.0 6.0 0.00 0.00 0.00 59 1003.0
20260903040015 67 29 1.0 3.0 0.00 0.00 0.00 53 1002.7
20260903034510 68 32 2.0 4.0 0.00 0.00 0.00 49 1002.5
20260903033016 70 123 0.0 4.0 0.00 0.00 0.00 49 1002.4
20260903031513 71 336 2.0 4.0 0.00 0.00 0.00 44 1002.1
20260903030007 71 279 2.0 5.0 0.00 0.00 0.00 45 1002.3
20260903024507 71 321 3.0 6.0 0.00 0.00 0.00 46 1002.2
20260903023005 72 37 4.0 7.0 0.00 0.00 0.00 48 1002.0
20260903021504 72 5 5.0 10.0 0.00 0.00 0.00 49 1002.3
20260903020011 72 16 4.0 9.0 0.00 0.00 0.00 49 1002.1
20260903014503 72 17 6.0 12.0 0.00 0.00 0.00 48 1002.0
20260903013006 73 21 8.0 12.0 0.00 0.00 0.00 48 1001.6
20260903011508 75 30 6.0 11.0 0.00 0.00 0.00 46 1001.8
20260903010002 76 49 11.0 17.0 0.00 0.00 0.00 43 1001.6
20260903004503 78 27 10.0 13.0 0.00 0.00 0.00 39 1001.5
20260903003101 80 310 8.0 14.0 0.00 0.00 0.00 34 1001.3
20260903001559 80 305 11.0 15.0 0.00 0.00 0.00 35 1001.5
20260903000058 80 291 10.0 16.0 0.00 0.00 0.00 35 1001.8
20260902234614 79 314 9.0 21.0 0.00 0.00 0.00 38 1001.9
20260902233059 77 293 16.0 25.0 0.00 0.00 0.00 40 1002.0
20260902231553 81 274 15.0 22.0 0.00 0.00 0.00 35 1002.2
20260902230101 84 183 5.0 7.0 0.00 0.00 0.00 31 1001.4
20260902224608 85 124 6.0 14.0 0.00 0.00 0.00 28 1000.6
20260902223051 86 101 4.0 14.0 0.00 0.00 0.00 27 1000.6
20260902221550 86 116 6.0 13.0 0.00 0.00 0.00 27 1000.4
20260902220051 86 120 6.0 12.0 0.00 0.00 0.00 27 1000.6
20260902214545 87 119 3.0 15.0 0.00 0.00 0.00 27 1000.8
20260902213043 88 117 6.0 15.0 0.00 0.00 0.00 26 1000.9
20260902211540 88 124 6.0 16.0 0.00 0.00 0.00 26 1001.3
20260902210038 87 153 5.0 11.0 0.00 0.00 0.00 27 1001.4
20260902204539 88 117 10.0 18.0 0.00 0.00 0.00 26 1001.6
20260902203033 88 117 6.0 13.0 0.00 0.00 0.00 26 1002.0
20260902201528 87 140 10.0 15.0 0.00 0.00 0.00 27 1002.3
20260902200046 87 122 9.0 15.0 0.00 0.00 0.00 27 1002.3
20260902194527 87 151 8.0 14.0 0.00 0.00 0.00 27 1002.6
20260902193022 87 167 8.0 15.0 0.00 0.00 0.00 29 1002.7
20260902191520 87 144 5.0 12.0 0.00 0.00 0.00 27 1003.2
20260902190030 86 136 7.0 11.0 0.00 0.00 0.00 30 1003.4
20260902184516 85 138 5.0 13.0 0.00 0.00 0.00 29 1003.7
20260902183012 84 119 7.0 13.0 0.00 0.00 0.00 27 1004.1
20260902181509 84 130 4.0 14.0 0.00 0.00 0.00 31 1004.3
20260902180008 85 131 5.0 13.0 0.00 0.00 0.00 30 1004.8
20260902174505 85 114 5.0 12.0 0.00 0.00 0.00 29 1005.0
20260902173003 84 162 6.0 13.0 0.00 0.00 0.00 29 1005.2
20260902171602 83 178 5.0 13.0 0.00 0.00 0.00 31 1005.3
20260902170057 83 140 5.0 16.0 0.00 0.00 0.00 30 1005.5
20260902164554 82 139 8.0 13.0 0.00 0.00 0.00 31 1005.7
20260902163052 82 153 5.0 10.0 0.00 0.00 0.00 33 1005.7
20260902161554 81 123 5.0 10.0 0.00 0.00 0.00 36 1005.8
20260902160055 82 145 3.0 8.0 0.00 0.00 0.00 36 1005.9
20260902154550 80 163 3.0 8.0 0.00 0.00 0.00 36 1006.0
20260902153045 79 156 3.0 7.0 0.00 0.00 0.00 37 1006.0
20260902151540 78 114 1.0 5.0 0.00 0.00 0.00 38 1006.0
20260902150036 76 150 3.0 5.0 0.00 0.00 0.00 41 1006.1
20260902144532 73 150 2.0 6.0 0.00 0.00 0.00 45 1006.1
20260902143031 73 147 5.0 9.0 0.00 0.00 0.00 43 1006.2
20260902141535 73 44 2.0 4.0 0.00 0.00 0.00 44 1005.7
20260902140025 70 137 1.0 4.0 0.00 0.00 0.00 48 1005.9
20260902134524 66 248 1.0 3.0 0.00 0.00 0.00 52 1005.9
20260902133023 63 5 0.0 2.0 0.00 0.00 0.00 54 1005.8
20260902131525 60 314 0.0 5.0 0.00 0.00 0.00 56 1005.7
20260902130020 58 15 3.0 9.0 0.00 0.00 0.00 58 1005.7
20260902124518 58 163 4.0 6.0 0.00 0.00 0.00 62 1005.5
20260902123016 58 182 4.0 6.0 0.00 0.00 0.00 63 1005.4
20260902121513 60 173 3.0 7.0 0.00 0.00 0.00 60 1005.4
20260902120015 59 237 3.0 7.0 0.00 0.00 0.00 55 1005.3
20260902114520 58 292 4.0 7.0 0.00 0.00 0.00 60 1005.2
20260902113010 59 340 0.0 5.0 0.00 0.00 0.00 60 1005.2
20260902111504 59 275 2.0 4.0 0.00 0.00 0.00 59 1005.1
20260902110005 60 158 2.0 5.0 0.00 0.00 0.00 60 1005.1
20260902104504 59 321 2.0 4.0 0.00 0.00 0.00 60 1005.1
20260902103059 60 321 2.0 3.0 0.00 0.00 0.00 62 1005.0
20260902101612 59 321 0.0 4.0 0.00 0.00 0.00 61 1005.0
20260902100055 60 296 3.0 6.0 0.00 0.00 0.00 59 1005.1
20260902094553 61 26 1.0 5.0 0.00 0.00 0.00 57 1005.1
20260902093048 63 285 1.0 3.0 0.00 0.00 0.00 55 1005.0
20260902091550 64 78 1.0 3.0 0.00 0.00 0.00 54 1005.1
20260902090045 65 69 2.0 7.0 0.00 0.00 0.00 52 1005.0
20260902084551 64 41 2.0 8.0 0.00 0.00 0.00 53 1004.9
20260902083045 63 13 6.0 8.0 0.00 0.00 0.00 54 1004.8
20260902081548 63 309 5.0 6.0 0.00 0.00 0.00 55 1004.9
20260902080039 64 55 5.0 6.0 0.00 0.00 0.00 56 1005.0
20260902074537 64 298 4.0 6.0 0.00 0.00 0.00 52 1004.9
20260902073036 64 329 3.0 4.0 0.00 0.00 0.00 54 1004.9
20260902071533 64 338 3.0 4.0 0.00 0.00 0.00 55 1005.1
20260902070031 64 304 3.0 6.0 0.00 0.00 0.00 55 1005.2
20260902064528 66 342 4.0 6.0 0.00 0.00 0.00 52 1005.2
20260902063023 69 44 6.0 8.0 0.00 0.00 0.00 48 1005.1
20260902061522 71 284 6.0 10.0 0.00 0.00 0.00 41 1005.0